Precipitable_Water
1.51 1.41 1.38 1.32 1.31 1.27 1.26 1.22 1.15 1.12 1.09 1.08 1.09 1.17 1.22 1.21 1.25 1.22 1.30 1.31 1.38 1.38 1.33 1.32 1.37 1.39 1.39 1.36 1.35 1.43 1.45 1.48 1.54 1.61 1.57 1.53 1.51 1.67 1.69 1.59 1.49 1.50 1.52 1.57 1.53 1.49 1.43 1.37 1.34 1.32 1.35 1.35 1.38 1.40 1.45 1.48 1.46 1.41 1.40 1.34 1.23 1.19 1.12 1.06 1.01 1.08 1.31 1.40 1.34 1.30 1.45 1.33 1.31 1.37 1.28 1.33 1.33 1.42 1.32 1.35 1.29 1.44 1.58 1.65 1.57
1.61 1.55 1.44 1.43 1.33 1.31 1.31 1.30 1.23 1.17 1.08 1.06 1.03 1.06 1.13 1.15 1.17 1.19 1.20 1.26 1.28 1.35 1.36 1.32 1.30 1.34 1.33 1.37 1.36 1.40 1.45 1.45 1.50 1.51 1.54 1.52 1.48 1.48 1.50 1.60 1.56 1.47 1.48 1.46 1.53 1.54 1.51 1.43 1.37 1.35 1.32 1.26 1.36 1.40 1.38 1.40 1.41 1.34 1.32 1.27 1.25 1.24 1.22 1.08 1.06 1.07 1.05 1.30 1.34 1.40 1.30 1.43 1.31 1.41 1.30 1.19 1.25 1.24 1.26 1.23 1.31 1.38 1.43 1.36 1.51
1.65 1.73 1.59 1.44 1.37 1.34 1.34 1.35 1.30 1.22 1.12 1.07 1.03 1.02 1.07 1.14 1.14 1.10 1.11 1.18 1.22 1.24 1.32 1.32 1.29 1.28 1.28 1.32 1.34 1.34 1.40 1.43 1.45 1.47 1.49 1.50 1.50 1.48 1.49 1.46 1.46 1.49 1.46 1.45 1.48 1.52 1.50 1.45 1.39 1.36 1.35 1.27 1.27 1.33 1.39 1.37 1.39 1.35 1.31 1.29 1.26 1.26 1.31 1.27 1.13 1.02 1.02 1.11 1.29 1.27 1.33 1.42 1.27 1.21 1.26 1.28 1.27 1.29 1.29 1.34 1.32 1.27 1.29 1.25 1.36
1.71 1.77 1.66 1.51 1.44 1.37 1.32 1.34 1.35 1.28 1.18 1.12 1.06 1.04 1.07 1.10 1.14 1.07 1.04 1.08 1.18 1.18 1.19 1.24 1.24 1.23 1.23 1.23 1.28 1.29 1.31 1.36 1.42 1.42 1.46 1.48 1.47 1.47 1.50 1.53 1.49 1.42 1.42 1.43 1.42 1.44 1.46 1.44 1.42 1.39 1.36 1.31 1.31 1.31 1.30 1.31 1.30 1.35 1.36 1.35 1.33 1.29 1.32 1.37 1.38 1.19 1.09 0.99 1.14 1.10 1.18 1.17 1.23 1.25 1.33 1.35 1.29 1.29 1.26 1.22 1.24 1.31 1.33 1.28 1.28
1.70 1.84 1.73 1.60 1.54 1.45 1.37 1.32 1.30 1.30 1.25 1.19 1.14 1.12 1.09 1.11 1.17 1.09 1.04 0.99 1.05 1.16 1.11 1.14 1.17 1.18 1.16 1.16 1.17 1.22 1.26 1.29 1.31 1.36 1.41 1.45 1.47 1.47 1.47 1.48 1.51 1.51 1.47 1.44 1.41 1.40 1.39 1.38 1.43 1.43 1.43 1.36 1.37 1.36 1.35 1.26 1.26 1.25 1.25 1.30 1.28 1.30 1.33 1.32 1.31 1.30 1.17 1.05 1.09 1.20 1.21 1.21 1.25 1.27 1.31 1.21 1.21 1.18 1.20 1.25 1.28 1.28 1.29 1.36 1.37
1.72 1.82 1.82 1.68 1.65 1.57 1.49 1.39 1.31 1.30 1.30 1.27 1.22 1.17 1.17 1.12 1.14 1.21 1.11 1.00 0.96 1.04 1.13 1.07 1.05 1.08 1.10 1.12 1.13 1.16 1.22 1.27 1.29 1.30 1.33 1.37 1.40 1.43 1.44 1.43 1.42 1.44 1.45 1.45 1.43 1.41 1.40 1.41 1.41 1.44 1.42 1.35 1.35 1.38 1.36 1.29 1.27 1.21 1.20 1.22 1.23 1.27 1.23 1.23 1.24 1.22 1.19 1.15 1.10 1.07 1.15 1.14 1.23 1.30 1.32 1.25 1.16 1.10 1.05 1.07 1.14 1.28 1.40 1.39 1.34
1.95 1.90 1.87 1.84 1.71 1.61 1.63 1.55 1.43 1.36 1.35 1.32 1.30 1.25 1.21 1.20 1.14 1.16 1.22 1.12 0.99 0.94 1.02 1.09 1.05 1.01 1.06 1.08 1.07 1.09 1.13 1.17 1.22 1.26 1.28 1.29 1.33 1.34 1.32 1.32 1.31 1.32 1.35 1.36 1.41 1.41 1.40 1.41 1.41 1.42 1.39 1.38 1.36 1.34 1.33 1.30 1.29 1.26 1.19 1.16 1.20 1.20 1.17 1.15 1.21 1.21 1.17 1.12 1.15 1.17 1.16 1.24 1.24 1.22 1.42 1.40 1.31 1.25 1.13 1.12 1.15 1.30 1.27 1.26 1.28
1.79 1.81 1.75 1.79 1.70 1.61 1.69 1.74 1.64 1.54 1.47 1.42 1.36 1.33 1.29 1.27 1.24 1.18 1.19 1.20 1.11 1.01 0.95 1.02 1.10 1.03 1.01 1.03 1.03 1.05 1.08 1.09 1.11 1.17 1.21 1.22 1.21 1.22 1.25 1.22 1.24 1.27 1.28 1.31 1.33 1.38 1.44 1.45 1.44 1.42 1.38 1.37 1.36 1.36 1.35 1.32 1.32 1.26 1.28 1.25 1.20 1.14 1.12 1.16 1.16 1.16 1.13 1.13 1.15 1.17 1.19 1.17 1.25 1.30 1.24 1.19 1.20 1.28 1.41 1.32 1.20 1.23 1.23 1.25 1.29
1.84 1.75 1.73 1.72 1.79 1.80 1.80 1.79 1.76 1.70 1.62 1.55 1.47 1.39 1.35 1.33 1.31 1.27 1.21 1.19 1.23 1.17 1.06 0.99 1.05 1.10 1.05 1.01 1.01 0.99 1.02 1.06 1.07 1.09 1.13 1.15 1.13 1.11 1.15 1.16 1.15 1.18 1.21 1.24 1.29 1.30 1.32 1.39 1.44 1.45 1.47 1.42 1.39 1.39 1.39 1.39 1.35 1.26 1.26 1.29 1.25 1.19 1.16 1.15 1.15 1.13 1.14 1.12 1.10 1.14 1.07 1.05 1.09 1.14 1.17 1.19 1.20 1.26 1.36 1.30 1.20 1.22 1.24 1.19 1.26
1.89 1.79 1.78 1.89 1.87 1.86 1.81 1.76 1.75 1.73 1.69 1.62 1.59 1.55 1.47 1.40 1.36 1.33 1.31 1.29 1.25 1.23 1.16 1.09 1.04 1.08 1.11 1.06 1.01 0.98 0.94 1.00 1.06 1.03 1.06 1.10 1.08 1.02 1.07 1.12 1.13 1.11 1.11 1.14 1.18 1.23 1.24 1.24 1.32 1.39 1.40 1.41 1.39 1.36 1.33 1.34 1.34 1.33 1.36 1.34 1.25 1.21 1.19 1.16 1.15 1.13 1.09 1.04 1.01 1.03 1.03 1.04 1.11 1.22 1.27 1.31 1.31 1.29 1.27 1.33 1.28 1.30 1.17 1.05 1.05
1.96 1.95 1.88 1.91 1.95 1.89 1.84 1.77 1.70 1.67 1.66 1.66 1.66 1.63 1.60 1.55 1.47 1.42 1.39 1.38 1.34 1.32 1.27 1.15 1.07 1.06 1.12 1.17 1.11 1.01 0.95 0.93 0.97 1.02 0.98 1.01 1.06 1.03 0.96 1.02 1.09 1.09 1.08 1.05 1.03 1.07 1.14 1.20 1.20 1.26 1.32 1.34 1.34 1.35 1.31 1.28 1.26 1.25 1.24 1.33 1.39 1.35 1.24 1.16 1.12 1.13 1.09 1.06 1.07 1.06 1.05 1.05 1.09 1.12 1.09 1.08 1.09 1.06 1.06 1.15 1.14 1.07 0.98 0.91 0.86
1.99 1.98 1.96 1.96 2.01 1.95 1.90 1.84 1.78 1.68 1.65 1.62 1.61 1.62 1.64 1.63 1.57 1.52 1.49 1.44 1.44 1.41 1.36 1.31 1.21 1.09 1.05 1.08 1.16 1.17 1.06 0.97 0.93 0.94 0.96 0.95 0.96 0.99 0.99 0.93 0.97 1.04 1.04 1.03 1.04 1.03 1.02 1.05 1.11 1.16 1.19 1.22 1.29 1.30 1.25 1.23 1.22 1.21 1.20 1.17 1.20 1.29 1.31 1.27 1.24 1.21 1.17 1.09 1.08 1.10 1.11 1.12 1.15 1.21 1.19 1.15 1.11 1.07 1.09 1.10 1.05 1.03 0.98 0.95 0.96
2.03 1.98 1.99 2.03 2.04 2.10 2.02 1.93 1.88 1.80 1.73 1.70 1.67 1.64 1.61 1.60 1.58 1.55 1.51 1.54 1.54 1.50 1.45 1.41 1.37 1.30 1.16 1.06 1.05 1.11 1.20 1.14 1.00 0.93 0.93 0.93 0.91 0.88 0.90 0.95 0.90 0.92 0.99 1.02 0.99 0.99 0.99 0.98 0.98 1.03 1.09 1.16 1.21 1.28 1.29 1.22 1.18 1.15 1.14 1.13 1.11 1.10 1.16 1.23 1.24 1.22 1.30 1.26 1.18 1.16 1.16 1.15 1.11 1.14 1.19 1.14 1.14 0.99 0.92 0.82 0.84 0.87 0.96 0.98 1.00
1.97 1.99 2.00 2.04 2.08 2.18 2.20 2.06 1.94 1.93 1.90 1.83 1.77 1.70 1.67 1.62 1.61 1.60 1.58 1.59 1.59 1.57 1.56 1.53 1.49 1.45 1.37 1.26 1.17 1.12 1.13 1.21 1.16 1.03 0.95 0.93 0.92 0.89 0.83 0.83 0.90 0.93 0.93 0.96 0.99 1.02 0.99 0.96 0.95 0.95 0.98 1.07 1.21 1.22 1.30 1.30 1.25 1.18 1.12 1.09 1.08 1.08 1.07 1.06 1.08 1.12 1.13 1.09 1.06 1.02 1.13 1.19 1.12 1.17 1.24 1.25 1.14 1.02 0.90 0.83 0.90 0.93 0.98 0.99 1.10
1.85 1.93 1.96 1.98 2.03 2.10 2.17 2.19 2.05 1.98 1.96 1.95 1.91 1.84 1.77 1.73 1.70 1.69 1.65 1.61 1.59 1.58 1.58 1.58 1.59 1.56 1.50 1.46 1.38 1.29 1.25 1.25 1.24 1.17 1.08 1.01 0.97 0.94 0.90 0.83 0.80 0.85 0.91 0.95 0.97 0.99 1.05 1.04 1.00 0.96 0.99 0.95 1.02 1.24 1.25 1.30 1.30 1.23 1.13 1.05 1.03 1.04 1.05 1.04 1.03 1.01 1.02 1.03 0.99 0.96 1.01 1.10 1.14 1.19 1.26 1.31 1.27 1.19 1.12 1.06 1.09 1.13 1.14 1.20 1.17
1.69 1.77 1.87 1.95 1.99 2.00 2.02 2.10 2.12 2.15 2.10 2.03 1.97 1.92 1.91 1.92 1.86 1.85 1.80 1.77 1.76 1.71 1.70 1.68 1.64 1.62 1.59 1.56 1.50 1.43 1.40 1.39 1.34 1.30 1.25 1.19 1.14 1.09 1.03 0.93 0.85 0.81 0.82 0.87 0.92 0.98 1.01 1.03 1.04 1.04 1.02 1.04 1.00 0.99 1.13 1.22 1.25 1.24 1.19 1.13 1.07 1.04 1.02 1.05 1.05 1.04 1.03 1.02 1.01 1.00 1.02 1.07 1.11 1.16 1.24 1.31 1.34 1.34 1.32 1.30 1.27 1.19 1.12 1.05 0.95
1.52 1.62 1.71 1.83 1.87 1.90 1.98 2.02 2.05 2.07 2.18 2.08 2.11 2.06 2.02 2.05 2.09 2.06 1.96 1.91 1.87 1.89 1.85 1.87 1.85 1.77 1.72 1.66 1.58 1.54 1.52 1.52 1.47 1.42 1.38 1.35 1.31 1.26 1.20 1.11 1.00 0.93 0.87 0.88 0.90 0.93 0.96 0.99 0.98 0.99 1.03 1.04 1.08 1.05 1.01 1.05 1.08 1.13 1.15 1.16 1.17 1.14 1.12 1.16 1.14 1.10 1.08 1.07 1.09 1.08 1.07 1.08 1.10 1.14 1.16 1.16 1.14 1.20 1.21 1.13 1.02 1.06 1.04 0.96 0.96
1.38 1.48 1.56 1.70 1.82 1.88 1.91 1.97 2.02 2.08 2.07 2.00 2.02 2.11 2.08 2.07 2.08 2.09 2.04 1.99 1.90 1.87 1.97 1.91 1.96 2.00 1.93 1.81 1.79 1.70 1.63 1.64 1.61 1.54 1.50 1.48 1.46 1.41 1.36 1.28 1.18 1.09 1.03 1.00 0.98 0.97 0.97 0.95 0.99 1.01 0.97 0.98 1.04 1.05 1.03 1.01 0.98 0.99 1.03 1.05 1.04 1.03 1.06 1.14 1.22 1.29 1.27 1.28 1.27 1.25 1.20 1.16 1.13 1.11 1.10 1.10 1.11 1.13 1.08 0.91 0.89 0.95 0.90 0.90 0.88
1.26 1.32 1.41 1.54 1.69 1.85 1.96 1.99 2.01 2.03 2.02 2.07 2.04 2.09 2.05 2.05 2.11 2.15 2.10 2.04 1.95 1.87 1.84 1.81 1.88 1.88 1.91 2.01 2.01 1.91 1.83 1.83 1.76 1.69 1.62 1.58 1.57 1.57 1.54 1.46 1.35 1.28 1.21 1.13 1.10 1.05 1.01 1.02 0.99 0.98 0.99 1.03 1.03 1.05 1.03 1.00 0.96 0.94 0.94 0.93 0.91 0.92 0.96 1.09 1.07 1.07 1.19 1.21 1.21 1.21 1.20 1.20 1.19 1.17 1.13 1.09 1.08 1.09 1.09 1.03 1.03 0.98 0.89 0.87 0.86
1.19 1.30 1.35 1.39 1.51 1.67 1.80 1.86 1.88 1.89 1.91 1.97 2.08 2.15 2.13 2.13 2.14 2.15 2.16 2.14 2.05 2.05 2.05 2.00 1.86 1.82 1.85 1.77 1.77 1.88 1.92 1.94 1.96 1.87 1.79 1.71 1.68 1.67 1.66 1.57 1.46 1.43 1.41 1.33 1.24 1.18 1.13 1.08 1.04 0.98 0.97 0.98 1.02 1.05 1.04 1.03 0.99 0.99 0.99 0.92 0.84 0.79 0.91 0.96 1.03 1.09 1.11 1.20 1.24 1.24 1.21 1.26 1.27 1.24 1.22 1.18 1.14 1.10 1.04 1.04 1.05 1.02 0.95 0.92 0.92
1.11 1.18 1.27 1.28 1.36 1.46 1.61 1.71 1.76 1.79 1.84 1.85 1.92 1.96 2.04 2.09 2.11 2.09 2.07 2.11 2.11 2.07 2.00 1.97 1.93 1.91 1.93 1.93 1.89 1.82 1.82 1.84 1.98 1.98 1.90 1.85 1.82 1.78 1.73 1.66 1.62 1.59 1.55 1.52 1.46 1.36 1.29 1.21 1.16 1.12 1.02 0.98 0.98 1.00 1.03 1.02 1.02 1.03 1.04 0.95 0.89 0.91 1.00 0.99 1.04 1.07 1.07 1.08 1.15 1.25 1.33 1.34 1.30 1.27 1.22 1.17 1.14 1.13 1.13 1.14 1.19 1.20 1.13 1.03 0.97
1.05 1.08 1.15 1.19 1.26 1.33 1.42 1.54 1.64 1.71 1.80 1.84 1.82 1.71 1.82 1.96 2.01 2.02 2.01 2.00 2.01 2.06 2.05 2.01 1.95 1.93 1.93 1.92 1.90 1.92 1.95 1.85 1.78 1.72 1.79 1.82 1.81 1.82 1.81 1.77 1.77 1.72 1.65 1.60 1.59 1.54 1.50 1.47 1.37 1.27 1.19 1.08 1.01 1.01 1.02 1.02 1.02 1.04 1.03 1.00 1.01 1.04 1.05 1.12 1.13 1.16 1.17 1.15 1.13 1.11 1.14 1.18 1.20 1.23 1.24 1.27 1.29 1.30 1.30 1.28 1.24 1.27 1.30 1.26 1.21
0.97 1.01 1.07 1.11 1.16 1.23 1.29 1.36 1.48 1.57 1.66 1.72 1.74 1.75 1.75 1.77 1.79 1.93 1.96 1.97 1.96 1.97 2.00 2.01 1.96 1.90 1.92 1.94 1.93 1.90 1.95 2.00 1.95 1.92 1.84 1.67 1.55 1.63 1.79 1.87 1.86 1.82 1.71 1.64 1.63 1.64 1.68 1.64 1.61 1.57 1.45 1.33 1.22 1.15 1.11 1.09 1.09 1.07 1.04 1.03 1.05 1.08 1.13 1.15 1.16 1.15 1.14 1.16 1.15 1.13 1.14 1.12 1.08 1.07 1.08 1.11 1.19 1.26 1.28 1.33 1.43 1.38 1.38 1.44 1.40
0.92 0.93 0.99 1.04 1.07 1.13 1.19 1.25 1.32 1.45 1.52 1.57 1.62 1.66 1.72 1.75 1.82 1.87 1.94 1.95 1.95 1.94 1.95 1.98 1.96 1.90 1.88 1.91 1.93 1.95 1.97 1.97 1.95 1.95 1.94 1.88 1.78 1.57 1.39 1.46 1.84 1.88 1.86 1.76 1.76 1.74 1.76 1.74 1.74 1.72 1.65 1.55 1.46 1.38 1.33 1.30 1.24 1.18 1.15 1.13 1.12 1.14 1.16 1.16 1.14 1.12 1.10 1.06 1.03 1.03 1.02 1.05 1.04 1.04 1.07 1.12 1.16 1.23 1.28 1.29 1.31 1.37 1.43 1.35 1.37
0.89 0.88 0.92 0.96 0.99 1.04 1.10 1.17 1.21 1.35 1.43 1.42 1.43 1.50 1.58 1.67 1.66 1.80 1.88 1.92 1.95 1.96 1.98 2.00 1.97 1.93 1.92 1.89 1.90 1.94 1.99 2.01 2.02 1.99 1.98 1.94 1.87 1.81 1.74 1.60 1.54 1.74 1.91 1.83 1.88 1.86 1.87 1.85 1.83 1.81 1.74 1.66 1.59 1.54 1.49 1.43 1.37 1.32 1.28 1.25 1.24 1.24 1.20 1.16 1.11 1.11 1.06 1.02 1.00 0.99 0.99 1.00 1.02 1.04 1.12 1.19 1.26 1.31 1.31 1.29 1.30 1.26 1.34 1.49 1.43
0.82 0.85 0.86 0.90 0.91 0.95 0.99 1.06 1.16 1.26 1.30 1.33 1.38 1.42 1.45 1.52 1.56 1.63 1.79 1.90 1.92 1.95 1.97 2.02 2.02 1.99 1.94 1.93 1.90 1.92 1.97 1.98 1.98 2.01 2.00 1.99 1.97 1.97 1.93 1.86 1.81 1.82 1.89 1.96 1.90 1.98 1.95 1.93 1.89 1.85 1.77 1.70 1.65 1.56 1.46 1.41 1.39 1.39 1.37 1.35 1.31 1.25 1.20 1.15 1.12 1.07 1.02 1.03 1.02 1.00 1.01 1.04 1.06 1.08 1.14 1.19 1.15 1.13 1.19 1.24 1.23 1.23 1.24 1.23 1.27
0.76 0.80 0.83 0.85 0.86 0.89 0.93 0.98 1.02 1.07 1.16 1.27 1.34 1.37 1.40 1.43 1.46 1.50 1.59 1.70 1.83 1.94 1.96 1.97 1.99 2.03 1.99 1.96 1.96 1.96 1.95 1.98 1.97 1.94 1.93 1.92 1.91 1.93 1.91 1.88 1.86 1.84 1.87 1.89 1.97 2.03 2.01 2.02 2.00 1.94 1.90 1.81 1.73 1.66 1.58 1.54 1.47 1.42 1.38 1.37 1.32 1.27 1.23 1.19 1.14 1.10 1.08 1.06 1.07 1.09 1.12 1.16 1.21 1.20 1.18 1.19 1.16 1.19 1.28 1.25 1.25 1.26 1.27 1.30 1.28
0.71 0.74 0.78 0.83 0.83 0.84 0.86 0.92 0.94 0.98 1.05 1.13 1.17 1.24 1.33 1.38 1.38 1.39 1.42 1.53 1.58 1.69 1.78 1.86 1.92 1.95 1.98 2.01 2.00 1.96 1.93 1.93 1.92 1.91 1.90 1.88 1.89 1.92 1.88 1.87 1.88 1.88 1.84 1.85 1.88 1.97 2.00 2.02 2.01 2.00 1.95 1.87 1.77 1.69 1.63 1.58 1.53 1.46 1.44 1.43 1.40 1.39 1.37 1.34 1.32 1.29 1.26 1.27 1.25 1.26 1.28 1.30 1.26 1.27 1.31 1.30 1.28 1.32 1.37 1.33 1.28 1.24 1.31 1.35 1.30
0.69 0.71 0.75 0.78 0.81 0.83 0.86 0.86 0.84 0.86 0.91 1.00 1.10 1.16 1.23 1.31 1.32 1.32 1.37 1.43 1.50 1.53 1.64 1.68 1.76 1.93 2.00 2.01 1.98 1.93 1.92 1.89 1.95 2.04 1.99 1.91 1.85 1.85 1.87 1.91 1.95 1.93 1.90 1.88 1.85 1.85 1.85 1.84 1.75 1.73 1.80 1.79 1.76 1.70 1.65 1.63 1.58 1.58 1.54 1.51 1.49 1.47 1.45 1.41 1.34 1.32 1.35 1.37 1.36 1.36 1.35 1.36 1.36 1.39 1.40 1.40 1.42 1.45 1.53 1.48 1.46 1.39 1.40 1.42 1.31
0.63 0.66 0.71 0.74 0.78 0.81 0.82 0.79 0.80 0.84 0.86 0.89 0.95 1.05 1.18 1.23 1.28 1.29 1.29 1.35 1.35 1.45 1.54 1.62 1.70 1.76 1.80 1.90 2.01 1.98 1.96 2.03 2.09 2.04 1.99 1.96 1.95 1.95 2.00 2.01 1.96 1.94 1.91 1.91 1.93 1.83 1.79 1.79 1.81 1.77 1.80 1.88 1.85 1.80 1.75 1.70 1.64 1.57 1.54 1.54 1.54 1.51 1.47 1.44 1.40 1.41 1.43 1.41 1.42 1.43 1.43 1.45 1.44 1.44 1.45 1.43 1.47 1.53 1.59 1.53 1.50 1.54 1.46 1.39 1.34
0.62 0.61 0.65 0.70 0.75 0.74 0.75 0.77 0.81 0.83 0.84 0.87 0.90 0.91 0.96 1.08 1.17 1.24 1.30 1.31 1.31 1.31 1.39 1.48 1.60 1.71 1.72 1.71 1.82 1.92 1.94 1.95 1.94 1.92 1.90 1.89 1.92 2.00 2.04 2.03 1.98 1.93 1.97 2.00 1.95 1.85 1.74 1.73 1.79 1.86 1.93 2.08 2.00 1.90 1.87 1.79 1.76 1.69 1.60 1.59 1.59 1.55 1.54 1.52 1.50 1.49 1.45 1.44 1.45 1.45 1.47 1.48 1.46 1.50 1.49 1.49 1.50 1.55 1.58 1.61 1.64 1.65 1.59 1.51 1.41
0.63 0.60 0.62 0.67 0.71 0.72 0.72 0.74 0.76 0.78 0.80 0.83 0.85 0.85 0.86 0.89 0.99 1.13 1.20 1.26 1.28 1.27 1.30 1.35 1.42 1.53 1.63 1.70 1.77 1.80 1.86 1.87 1.87 1.84 1.83 1.86 1.92 1.96 2.02 2.07 2.06 2.01 1.99 2.00 1.83 1.72 1.70 1.68 1.70 1.79 1.91 2.01 2.01 2.01 1.92 1.93 1.87 1.80 1.70 1.63 1.61 1.64 1.59 1.53 1.56 1.56 1.52 1.48 1.44 1.43 1.43 1.44 1.45 1.49 1.50 1.51 1.52 1.53 1.54 1.53 1.53 1.53 1.55 1.56 1.50
0.73 0.69 0.67 0.66 0.67 0.68 0.69 0.70 0.71 0.72 0.74 0.77 0.80 0.84 0.82 0.82 0.84 0.92 1.08 1.16 1.19 1.22 1.26 1.30 1.33 1.38 1.48 1.59 1.68 1.77 1.74 1.78 1.81 1.81 1.82 1.84 1.89 1.89 1.93 1.99 1.99 1.96 1.93 1.83 1.74 1.68 1.67 1.62 1.61 1.67 1.85 2.00 1.98 2.01 2.00 1.97 1.94 1.91 1.87 1.79 1.71 1.71 1.73 1.75 1.77 1.68 1.60 1.56 1.52 1.46 1.44 1.43 1.43 1.43 1.45 1.47 1.46 1.41 1.45 1.45 1.49 1.51 1.53 1.51 1.47
0.78 0.74 0.71 0.69 0.66 0.65 0.67 0.68 0.68 0.69 0.72 0.75 0.78 0.80 0.82 0.84 0.85 0.88 0.91 0.95 1.03 1.15 1.25 1.30 1.32 1.34 1.38 1.43 1.51 1.65 1.74 1.70 1.74 1.75 1.75 1.77 1.80 1.82 1.86 1.90 1.92 1.89 1.84 1.75 1.69 1.65 1.70 1.67 1.65 1.76 1.97 2.02 2.00 1.95 1.94 1.94 1.95 1.95 1.93 1.91 1.88 1.85 1.83 1.88 1.85 1.76 1.73 1.72 1.67 1.63 1.61 1.59 1.58 1.51 1.46 1.46 1.47 1.47 1.44 1.42 1.45 1.46 1.48 1.49 1.48
0.81 0.77 0.74 0.71 0.68 0.66 0.66 0.67 0.68 0.69 0.69 0.71 0.73 0.76 0.80 0.84 0.85 0.85 0.87 0.90 0.93 0.96 1.03 1.20 1.32 1.36 1.33 1.31 1.39 1.54 1.64 1.69 1.71 1.75 1.78 1.77 1.75 1.75 1.80 1.81 1.79 1.77 1.75 1.74 1.67 1.61 1.60 1.63 1.67 1.83 1.96 1.95 1.95 1.92 1.89 1.90 1.93 1.90 1.88 1.89 1.88 1.85 1.85 1.83 1.80 1.82 1.81 1.77 1.73 1.69 1.69 1.68 1.67 1.65 1.62 1.58 1.57 1.54 1.52 1.52 1.55 1.52 1.48 1.47 1.47
0.83 0.80 0.76 0.73 0.70 0.69 0.68 0.67 0.68 0.68 0.69 0.69 0.71 0.72 0.76 0.79 0.83 0.86 0.89 0.92 0.94 0.97 1.02 1.09 1.21 1.29 1.31 1.30 1.34 1.37 1.47 1.56 1.58 1.60 1.67 1.74 1.73 1.70 1.63 1.63 1.66 1.73 1.77 1.72 1.62 1.59 1.60 1.61 1.66 1.73 1.81 1.86 1.90 1.88 1.87 1.86 1.86 1.86 1.89 1.87 1.85 1.85 1.83 1.80 1.80 1.79 1.80 1.79 1.76 1.75 1.75 1.74 1.73 1.72 1.72 1.69 1.66 1.63 1.59 1.56 1.54 1.56 1.55 1.54 1.55
0.84 0.81 0.78 0.76 0.74 0.72 0.70 0.68 0.68 0.68 0.69 0.68 0.68 0.69 0.72 0.77 0.82 0.88 0.90 0.89 0.90 0.94 0.98 1.03 1.08 1.14 1.23 1.35 1.38 1.34 1.33 1.38 1.43 1.46 1.52 1.61 1.66 1.64 1.62 1.63 1.64 1.68 1.69 1.66 1.63 1.66 1.67 1.68 1.72 1.74 1.76 1.77 1.82 1.87 1.88 1.88 1.90 1.92 1.93 1.94 1.92 1.88 1.86 1.86 1.85 1.81 1.79 1.75 1.74 1.75 1.76 1.75 1.75 1.74 1.70 1.66 1.67 1.69 1.67 1.63 1.61 1.62 1.65 1.65 1.68
0.82 0.80 0.79 0.78 0.75 0.71 0.68 0.66 0.66 0.66 0.67 0.67 0.70 0.72 0.72 0.75 0.78 0.83 0.86 0.88 0.90 0.90 0.91 0.98 1.02 1.02 1.07 1.18 1.29 1.27 1.23 1.24 1.29 1.40 1.44 1.49 1.53 1.55 1.58 1.61 1.63 1.63 1.68 1.71 1.72 1.74 1.76 1.79 1.79 1.77 1.75 1.78 1.79 1.84 1.85 1.88 1.94 1.96 1.97 1.98 1.98 1.94 1.92 1.90 1.85 1.81 1.76 1.72 1.71 1.74 1.77 1.75 1.74 1.72 1.72 1.67 1.63 1.64 1.64 1.65 1.66 1.65 1.69 1.70 1.68
0.79 0.79 0.78 0.77 0.74 0.71 0.68 0.66 0.66 0.66 0.66 0.68 0.71 0.71 0.71 0.72 0.73 0.77 0.82 0.87 0.89 0.90 0.91 0.92 0.96 0.98 1.03 1.11 1.14 1.17 1.13 1.13 1.14 1.19 1.30 1.36 1.44 1.50 1.54 1.59 1.62 1.62 1.63 1.66 1.74 1.83 1.89 1.87 1.86 1.88 1.83 1.79 1.79 1.82 1.85 1.87 1.91 1.95 1.99 1.99 1.98 1.98 1.93 1.91 1.86 1.83 1.77 1.73 1.75 1.78 1.76 1.74 1.76 1.79 1.80 1.76 1.71 1.70 1.70 1.71 1.71 1.71 1.71 1.71 1.73
0.75 0.76 0.77 0.76 0.74 0.73 0.71 0.69 0.68 0.66 0.67 0.67 0.69 0.71 0.72 0.72 0.73 0.74 0.77 0.80 0.84 0.88 0.89 0.88 0.91 0.97 1.04 1.07 1.04 1.05 1.02 1.04 1.10 1.16 1.27 1.29 1.30 1.36 1.44 1.51 1.62 1.68 1.68 1.67 1.71 1.74 1.78 1.82 1.87 1.88 1.86 1.82 1.80 1.78 1.82 1.87 1.88 1.91 1.94 1.97 1.93 1.93 1.93 1.91 1.87 1.82 1.77 1.79 1.83 1.84 1.82 1.80 1.81 1.83 1.83 1.81 1.77 1.79 1.79 1.78 1.79 1.81 1.80 1.76 1.76
0.74 0.74 0.75 0.75 0.76 0.74 0.72 0.70 0.67 0.67 0.69 0.70 0.71 0.72 0.73 0.74 0.74 0.75 0.76 0.77 0.80 0.84 0.87 0.88 0.90 0.96 1.01 1.01 1.02 1.03 1.02 1.03 1.06 1.11 1.20 1.29 1.31 1.31 1.34 1.41 1.49 1.57 1.65 1.67 1.70 1.75 1.79 1.79 1.78 1.83 1.86 1.85 1.84 1.79 1.77 1.79 1.85 1.89 1.88 1.90 1.93 1.93 1.95 1.93 1.90 1.84 1.83 1.82 1.82 1.85 1.87 1.89 1.88 1.82 1.76 1.79 1.85 1.85 1.83 1.83 1.82 1.80 1.79 1.79 1.79
0.72 0.72 0.73 0.74 0.76 0.76 0.73 0.71 0.70 0.70 0.71 0.71 0.72 0.73 0.74 0.75 0.75 0.76 0.76 0.77 0.79 0.82 0.84 0.88 0.91 0.94 0.97 0.98 0.98 1.00 1.01 1.04 1.10 1.12 1.17 1.21 1.26 1.31 1.31 1.33 1.36 1.38 1.44 1.50 1.56 1.60 1.64 1.65 1.67 1.70 1.71 1.74 1.77 1.78 1.83 1.83 1.87 1.93 1.97 1.94 1.96 1.95 1.89 1.89 1.88 1.88 1.87 1.85 1.85 1.89 1.93 1.93 1.90 1.92 1.91 1.86 1.82 1.81 1.79 1.78 1.77 1.75 1.74 1.73 1.74
0.73 0.72 0.73 0.74 0.75 0.75 0.74 0.73 0.72 0.70 0.69 0.69 0.71 0.74 0.75 0.75 0.75 0.76 0.76 0.77 0.79 0.80 0.82 0.85 0.89 0.93 0.94 0.95 0.95 0.97 1.00 1.03 1.06 1.07 1.09 1.12 1.15 1.24 1.30 1.32 1.35 1.38 1.42 1.49 1.54 1.58 1.61 1.60 1.56 1.53 1.54 1.57 1.59 1.60 1.62 1.70 1.80 1.85 1.92 1.95 1.96 1.99 1.94 1.93 1.88 1.86 1.85 1.86 1.92 1.93 1.89 1.88 1.87 1.84 1.80 1.77 1.76 1.74 1.71 1.67 1.67 1.69 1.68 1.70 1.71
0.73 0.73 0.74 0.74 0.75 0.75 0.76 0.75 0.73 0.72 0.71 0.71 0.73 0.74 0.74 0.74 0.75 0.75 0.76 0.76 0.78 0.80 0.82 0.84 0.87 0.90 0.91 0.93 0.93 0.94 0.96 0.99 1.01 1.02 1.05 1.08 1.09 1.11 1.20 1.27 1.31 1.34 1.39 1.43 1.47 1.51 1.54 1.54 1.53 1.51 1.52 1.52 1.54 1.56 1.58 1.61 1.66 1.70 1.74 1.80 1.85 1.87 1.87 1.85 1.83 1.81 1.83 1.86 1.86 1.81 1.82 1.84 1.84 1.86 1.90 1.85 1.79 1.74 1.70 1.68 1.64 1.60 1.61 1.61 1.63
0.73 0.72 0.72 0.72 0.73 0.73 0.74 0.75 0.74 0.73 0.73 0.73 0.72 0.73 0.75 0.75 0.74 0.75 0.76 0.76 0.77 0.79 0.81 0.83 0.86 0.88 0.88 0.89 0.89 0.89 0.92 0.96 0.99 1.00 1.02 1.05 1.08 1.08 1.11 1.18 1.23 1.27 1.31 1.34 1.37 1.40 1.44 1.47 1.48 1.47 1.48 1.51 1.53 1.54 1.56 1.58 1.59 1.61 1.64 1.69 1.71 1.73 1.81 1.87 1.89 1.81 1.79 1.77 1.77 1.79 1.78 1.84 1.79 1.77 1.79 1.85 1.83 1.73 1.69 1.70 1.73 1.73 1.67 1.66 1.62
0.72 0.71 0.71 0.71 0.71 0.72 0.73 0.73 0.74 0.74 0.73 0.72 0.71 0.71 0.73 0.75 0.75 0.76 0.77 0.77 0.77 0.77 0.78 0.81 0.84 0.86 0.87 0.87 0.89 0.89 0.90 0.93 0.97 1.00 1.02 1.04 1.07 1.09 1.11 1.13 1.16 1.19 1.22 1.25 1.28 1.31 1.35 1.39 1.42 1.43 1.45 1.47 1.51 1.54 1.56 1.58 1.58 1.59 1.59 1.59 1.61 1.62 1.67 1.70 1.72 1.74 1.75 1.77 1.77 1.75 1.77 1.79 1.78 1.83 1.85 1.82 1.78 1.72 1.64 1.61 1.66 1.71 1.70 1.66 1.65
0.70 0.70 0.70 0.70 0.71 0.72 0.72 0.73 0.73 0.73 0.73 0.73 0.72 0.71 0.72 0.74 0.75 0.76 0.77 0.77 0.77 0.77 0.77 0.79 0.81 0.82 0.84 0.86 0.87 0.89 0.90 0.90 0.93 0.97 1.01 1.03 1.05 1.08 1.10 1.11 1.12 1.13 1.15 1.18 1.22 1.26 1.30 1.33 1.36 1.38 1.41 1.45 1.48 1.51 1.53 1.57 1.58 1.57 1.55 1.53 1.53 1.52 1.51 1.50 1.51 1.54 1.56 1.62 1.68 1.68 1.69 1.70 1.70 1.73 1.74 1.74 1.70 1.65 1.59 1.56 1.52 1.54 1.59 1.62 1.62
0.68 0.69 0.70 0.71 0.71 0.71 0.72 0.73 0.73 0.73 0.73 0.73 0.73 0.72 0.72 0.74 0.76 0.76 0.76 0.76 0.76 0.76 0.77 0.78 0.79 0.80 0.82 0.85 0.87 0.89 0.91 0.91 0.92 0.95 0.98 1.01 1.04 1.08 1.10 1.10 1.10 1.10 1.13 1.16 1.19 1.23 1.28 1.32 1.34 1.36 1.38 1.40 1.43 1.44 1.47 1.49 1.52 1.53 1.50 1.49 1.49 1.49 1.49 1.49 1.49 1.49 1.50 1.51 1.54 1.57 1.60 1.62 1.64 1.66 1.70 1.72 1.70 1.68 1.65 1.61 1.62 1.62 1.62 1.63 1.66
0.68 0.69 0.69 0.69 0.69 0.70 0.70 0.71 0.72 0.73 0.73 0.73 0.74 0.73 0.72 0.73 0.75 0.76 0.76 0.76 0.75 0.76 0.76 0.76 0.77 0.79 0.81 0.83 0.85 0.88 0.90 0.91 0.91 0.92 0.95 0.99 1.02 1.05 1.09 1.10 1.10 1.10 1.11 1.12 1.15 1.18 1.22 1.27 1.32 1.36 1.37 1.37 1.37 1.38 1.39 1.40 1.42 1.44 1.44 1.44 1.46 1.46 1.44 1.43 1.42 1.44 1.47 1.47 1.47 1.49 1.53 1.57 1.60 1.64 1.68 1.69 1.68 1.69 1.70 1.71 1.72 1.71 1.70 1.70 1.70
0.68 0.69 0.69 0.69 0.70 0.70 0.72 0.72 0.73 0.73 0.74 0.75 0.74 0.73 0.73 0.73 0.74 0.75 0.76 0.75 0.75 0.75 0.76 0.76 0.77 0.78 0.80 0.81 0.83 0.84 0.86 0.87 0.88 0.90 0.94 0.97 1.00 1.03 1.07 1.12 1.13 1.13 1.13 1.12 1.13 1.16 1.18 1.22 1.29 1.35 1.35 1.32 1.32 1.33 1.34 1.35 1.36 1.36 1.37 1.39 1.41 1.42 1.42 1.42 1.42 1.43 1.44 1.44 1.45 1.48 1.50 1.50 1.52 1.57 1.61 1.64 1.66 1.65 1.65 1.67 1.69 1.69 1.69 1.68 1.69
0.67 0.67 0.68 0.68 0.69 0.70 0.71 0.71 0.71 0.72 0.73 0.74 0.74 0.74 0.73 0.73 0.73 0.74 0.75 0.75 0.74 0.74 0.76 0.76 0.77 0.78 0.79 0.81 0.83 0.84 0.85 0.86 0.88 0.89 0.92 0.95 0.98 1.00 1.03 1.07 1.13 1.17 1.17 1.16 1.13 1.15 1.20 1.23 1.25 1.31 1.30 1.29 1.28 1.28 1.29 1.30 1.30 1.30 1.32 1.34 1.37 1.39 1.40 1.40 1.40 1.41 1.42 1.44 1.45 1.45 1.46 1.47 1.47 1.48 1.52 1.56 1.59 1.60 1.60 1.63 1.65 1.65 1.64 1.64 1.67
Wind_Speed
22 22 22 21 21 21 20 20 19 19 19 20 20 19 18 18 17 16 16 15 15 14 14 14 13 13 12 12 12 11 11 10 10 10 9 9 9 8 9 9 9 9 9 9 9 9 9 9 10 10 10 10 9 9 9 9 9 9 9 9 10 10 10 11 11 10 10 10 10 9 9 9 9 9 10 10 10 11 12 13 13 13 12 13 13
22 22 22 22 22 22 21 21 20 20 20 20 20 20 19 19 18 18 17 17 16 15 15 15 14 14 13 13 13 12 12 12 11 11 10 10 10 9 9 10 10 10 10 10 10 9 9 9 10 10 10 10 10 10 10 10 10 10 10 10 10 10 11 11 11 11 11 11 10 10 10 10 10 11 11 12 12 13 13 13 14 13 13 14 14
23 23 23 23 23 22 22 21 21 21 21 21 21 21 20 20 20 19 18 18 17 17 16 16 15 15 15 14 14 13 13 13 12 12 12 11 11 10 10 10 10 10 10 10 10 10 10 10 10 10 10 10 11 11 11 11 11 11 11 11 11 11 11 11 12 12 12 12 12 12 11 11 12 12 13 13 13 14 14 14 14 14 14 15 16
24 24 24 23 23 23 22 22 21 22 21 21 21 21 21 21 20 20 20 19 18 18 17 17 16 16 16 15 15 15 14 14 13 13 13 12 12 12 11 11 11 11 11 11 11 11 10 10 10 10 10 10 11 11 11 11 11 11 11 11 11 11 11 11 12 12 13 13 13 13 13 13 13 13 13 14 14 14 15 15 15 15 15 16 16
24 25 24 24 23 23 23 23 22 22 22 22 22 22 21 21 21 21 21 21 20 19 18 18 17 17 17 16 16 16 15 15 15 14 14 13 13 13 12 12 12 12 11 11 11 11 11 11 11 11 11 11 11 11 11 11 12 12 12 12 12 12 12 12 13 13 13 13 14 14 14 14 14 14 14 14 15 15 16 16 16 16 16 16 16
24 25 24 24 24 23 23 24 23 23 23 22 22 22 22 22 22 22 21 22 21 20 19 19 19 18 18 18 17 17 16 16 16 15 15 14 14 14 13 13 13 12 12 12 12 12 12 12 12 12 12 12 12 11 11 11 12 12 12 12 12 12 12 13 13 13 13 14 14 14 14 14 15 15 15 15 15 16 16 16 16 15 15 15 15
21 23 23 24 24 24 24 24 24 24 23 23 23 23 23 23 23 22 22 22 22 22 21 20 20 20 19 19 18 18 17 17 17 17 16 15 15 15 14 14 14 14 13 13 13 13 13 13 13 13 13 12 12 12 12 12 12 12 12 12 13 13 13 13 13 13 14 14 14 14 14 14 14 14 14 15 15 16 16 15 15 14 14 15 15
18 20 22 23 24 24 25 24 24 24 24 24 23 23 24 24 24 23 23 23 23 23 23 22 21 21 21 21 20 19 19 19 18 18 18 17 16 16 16 15 15 15 14 14 14 14 14 14 14 14 13 13 13 13 13 12 12 12 13 13 13 13 13 13 13 13 13 13 13 13 13 13 14 14 14 14 14 14 14 14 14 14 14 14 15
18 19 21 23 23 24 25 25 25 24 24 24 24 24 24 24 24 24 24 24 23 23 23 23 22 22 22 22 22 21 20 20 20 19 19 19 18 17 17 17 16 16 16 16 15 15 15 15 15 15 15 15 15 14 14 13 13 13 13 13 13 13 13 13 13 13 13 13 13 13 13 13 13 13 13 13 13 14 14 14 14 14 15 15 16
19 20 21 23 23 24 25 25 25 25 25 25 25 25 25 25 25 25 25 25 25 24 24 24 24 23 23 22 23 22 22 21 21 21 21 20 20 19 18 18 18 17 17 17 17 16 16 16 16 17 17 16 16 16 16 15 15 15 14 14 14 14 14 14 14 14 14 14 14 13 13 13 13 13 13 13 14 15 15 15 15 15 16 16 17
19 20 21 23 23 23 25 26 26 26 26 26 26 26 26 26 26 26 26 26 25 25 25 25 25 25 24 23 23 23 23 23 23 23 22 22 21 21 20 19 19 19 18 18 18 18 17 17 17 17 17 18 18 18 18 17 17 17 16 16 15 15 15 15 14 14 14 14 14 14 14 14 14 14 14 14 15 16 16 15 15 16 16 17 17
20 20 21 23 23 24 24 25 26 26 26 26 26 27 26 26 27 27 27 27 27 26 26 26 26 26 26 25 24 24 24 24 24 24 24 24 23 22 22 21 20 20 20 20 19 19 19 19 18 18 18 18 19 19 19 19 18 18 18 18 17 17 17 16 16 15 15 15 15 15 15 15 15 15 15 15 15 16 16 16 16 17 17 17 17
22 22 22 23 24 24 25 26 26 26 26 27 27 27 27 27 27 27 28 28 28 28 28 28 27 27 27 27 26 25 25 25 25 26 26 26 26 25 24 23 22 22 21 21 21 21 20 20 20 19 19 19 19 19 19 19 19 19 19 19 19 19 19 19 18 17 17 16 16 16 16 16 16 16 16 16 16 16 16 17 17 17 17 17 17
22 23 24 24 24 23 23 25 26 26 26 27 27 27 28 28 28 28 28 28 29 29 29 29 29 29 29 28 28 27 26 26 26 27 27 27 27 27 26 25 24 23 23 23 22 22 22 22 21 21 20 20 19 19 19 19 19 20 20 20 20 20 20 20 20 20 19 19 19 19 18 17 17 17 17 17 17 17 17 17 17 17 17 17 18
21 23 24 25 26 25 23 23 25 26 27 27 28 28 29 29 29 29 29 29 29 29 29 30 30 30 30 30 30 29 28 28 27 27 28 28 28 28 28 27 26 25 25 25 24 24 23 23 23 22 22 22 21 20 20 20 20 20 20 20 21 21 21 21 21 21 21 21 21 20 20 19 19 18 18 18 17 17 17 17 17 17 18 18 18
19 21 23 25 26 26 25 24 24 24 26 27 28 29 29 30 30 30 30 30 29 29 30 30 30 31 31 31 31 31 30 30 29 29 29 29 29 29 29 29 28 28 27 26 26 26 25 25 24 24 23 23 23 23 22 21 21 21 20 20 21 21 21 21 22 22 21 21 21 21 21 20 20 19 19 18 18 18 18 18 18 18 18 18 19
19 20 22 24 25 26 26 26 26 25 25 25 26 27 28 28 28 29 29 29 30 30 29 29 30 30 31 31 31 31 31 31 30 31 31 30 30 30 30 30 30 29 29 28 28 27 27 27 27 26 25 25 25 25 24 23 23 22 22 22 21 21 21 21 21 22 22 22 22 22 22 22 21 21 20 20 20 20 20 20 20 19 19 18 19
20 20 21 23 24 25 26 27 28 28 27 27 26 25 26 27 27 27 27 28 29 29 29 29 29 29 30 31 31 31 31 31 31 31 32 32 32 31 31 31 30 30 30 30 29 29 29 29 29 28 28 27 27 26 26 26 25 24 24 23 23 22 22 21 21 21 21 22 22 22 22 22 23 22 22 22 22 21 21 22 21 21 20 20 20
21 21 21 22 23 24 25 26 27 27 27 27 27 26 26 26 26 27 27 27 28 29 29 30 30 29 29 30 30 31 31 30 30 31 32 32 32 32 32 32 31 31 30 31 31 30 30 30 30 30 30 29 28 28 27 27 27 26 25 25 24 24 23 22 22 21 21 21 22 23 23 23 23 23 24 24 24 23 23 23 23 22 22 22 22
23 23 22 22 23 24 25 25 25 26 27 27 27 27 28 28 27 27 27 27 28 28 29 30 30 30 30 30 29 30 30 30 30 30 31 32 32 33 33 32 32 32 32 31 31 31 31 31 31 31 31 31 30 29 29 29 28 27 27 26 26 25 24 24 23 23 22 22 22 22 23 23 24 24 24 24 25 24 24 24 24 23 23 24 23
25 25 25 24 24 24 25 26 26 26 26 27 28 28 29 30 30 29 28 28 29 29 29 29 29 30 30 30 30 29 30 30 29 29 29 31 32 33 33 33 33 32 32 32 32 32 31 31 31 31 32 32 32 31 30 30 29 29 28 27 27 26 25 25 25 24 24 24 24 23 23 23 24 24 24 24 25 25 25 25 25 24 24 24 24
27 27 27 26 25 25 25 26 27 27 27 27 28 29 29 30 30 30 30 30 31 30 30 30 29 29 29 30 30 30 30 30 30 29 30 31 32 33 34 33 33 33 33 33 33 32 32 31 31 31 31 32 32 32 31 31 30 30 29 29 28 27 26 26 25 25 24 24 24 24 24 24 24 24 24 24 24 24 24 24 25 25 25 25 24
30 29 29 28 27 27 27 26 27 28 28 28 28 28 29 29 29 30 31 32 32 32 32 31 30 30 30 29 29 29 29 29 29 30 30 30 31 33 34 34 33 33 33 33 33 32 32 31 31 30 30 31 31 31 31 31 31 30 30 30 29 28 27 27 26 26 25 25 25 24 24 25 25 25 24 24 24 24 24 24 25 25 25 25 25
32 32 31 30 29 28 29 28 28 28 29 30 29 29 29 30 30 30 31 32 32 33 33 32 32 31 31 31 29 29 28 28 29 30 30 30 31 31 33 34 34 34 34 34 33 32 31 31 30 30 30 30 30 30 30 30 30 30 31 30 30 29 28 27 27 27 27 26 26 26 26 25 25 25 25 24 24 24 24 24 24 25 25 25 26
34 33 33 32 31 30 30 30 30 29 30 31 30 30 30 30 30 30 31 31 32 32 32 33 32 32 32 32 31 30 29 29 28 29 30 30 30 30 31 32 34 34 34 34 34 33 32 31 30 30 29 29 29 28 28 29 29 30 30 30 29 29 28 28 27 27 27 27 27 27 27 27 26 26 25 25 24 24 24 24 24 24 25 25 25
35 35 35 34 33 33 32 31 31 31 31 31 31 31 30 30 30 30 30 30 30 31 31 32 32 33 33 33 32 31 30 29 29 28 29 29 30 30 30 30 32 34 34 35 36 35 33 31 30 29 29 28 28 27 27 28 28 29 29 29 28 29 29 28 27 27 27 27 27 27 27 26 26 26 25 25 25 24 24 24 24 24 24 24 24
37 37 37 36 35 35 34 33 33 32 32 32 32 32 31 31 31 31 30 30 30 30 31 31 32 32 32 32 32 31 30 30 30 30 29 29 29 29 29 29 30 31 32 34 36 36 35 33 31 30 29 28 28 28 28 27 27 27 27 27 27 28 27 27 27 27 26 26 26 26 26 25 25 24 24 24 24 25 24 24 24 24 24 24 25
38 38 38 38 38 37 36 35 35 34 34 34 34 33 32 32 31 31 30 30 31 31 32 32 32 32 32 32 31 31 30 30 30 30 30 30 29 29 29 28 29 29 30 31 33 34 35 34 33 31 30 29 29 28 27 27 26 26 26 26 27 27 27 26 26 26 26 25 25 25 25 25 24 24 24 24 24 24 24 24 25 25 25 25 25
39 39 39 39 39 39 38 37 37 37 37 36 36 35 34 34 33 33 32 31 31 32 33 33 34 34 34 33 33 32 32 30 30 30 30 30 31 31 30 29 29 28 28 28 29 30 31 32 32 31 30 30 29 29 28 27 26 26 26 26 26 26 26 26 26 26 26 26 26 25 25 25 25 25 24 24 24 24 24 24 24 25 25 25 26
40 40 40 40 40 40 40 39 39 39 38 38 38 38 37 36 36 35 34 33 32 32 33 34 35 35 35 35 35 36 35 34 33 32 32 32 32 32 32 30 29 28 27 27 27 27 28 29 30 31 31 30 30 29 28 27 26 26 26 26 26 26 26 26 27 27 27 27 27 27 26 26 26 25 25 25 25 24 24 24 25 25 25 25 26
40 40 40 41 41 41 41 41 41 40 40 40 40 40 39 39 38 37 37 36 34 33 33 34 35 35 35 36 36 37 37 37 36 36 35 34 34 34 33 32 31 29 28 27 27 27 27 28 30 31 32 32 30 28 27 27 27 27 27 27 26 26 26 26 26 26 27 27 28 28 27 27 27 26 26 25 25 25 25 25 26 26 26 26 26
41 41 41 41 41 42 41 41 42 41 41 41 41 41 41 40 39 38 38 38 37 36 35 34 35 35 35 35 35 36 36 36 36 36 35 35 35 35 34 34 33 31 29 29 28 28 28 28 29 31 32 32 30 29 27 27 27 27 27 27 27 27 27 26 26 26 26 27 27 28 28 29 29 28 28 27 27 27 26 27 27 27 27 27 28
41 41 41 42 42 42 42 42 42 42 42 42 42 42 42 41 41 40 39 38 38 38 37 36 36 36 36 35 35 35 36 36 36 35 35 35 35 35 34 34 33 32 30 29 29 28 27 27 28 30 31 31 30 28 27 27 28 28 28 28 28 28 28 28 27 28 27 27 27 28 28 29 29 29 29 29 29 29 28 28 28 28 28 28 29
41 41 41 42 42 43 43 43 43 43 43 43 43 42 42 42 42 41 40 39 39 38 38 38 38 37 37 37 36 35 35 35 36 36 36 35 35 35 34 33 33 32 32 30 29 28 29 30 31 31 31 30 29 27 27 28 29 29 29 29 29 29 29 29 28 29 29 28 28 28 28 28 28 29 29 29 29 29 30 30 29 29 29 29 29
40 41 41 42 43 43 43 44 44 44 44 44 44 44 44 43 43 42 41 40 39 38 38 38 38 38 38 38 37 36 36 35 35 36 36 35 35 35 35 35 34 34 34 34 32 31 32 33 33 32 31 30 29 28 28 28 29 30 30 30 30 30 30 29 29 29 29 29 29 29 29 29 29 29 29 29 30 30 30 30 30 30 31 31 30
41 40 41 42 43 43 43 44 44 45 45 44 45 45 45 44 44 43 42 41 40 39 38 38 38 38 38 39 38 37 36 36 36 36 36 36 36 36 37 37 37 36 37 37 36 35 34 34 34 34 33 31 30 29 29 29 29 30 31 31 31 30 30 30 30 30 30 30 30 30 29 30 30 29 30 30 31 31 31 30 30 31 32 32 32
42 42 42 42 43 44 44 44 45 45 46 46 46 46 46 45 45 44 43 42 41 40 39 39 38 38 38 38 38 38 37 37 37 37 37 36 36 36 37 37 38 38 38 38 38 37 36 35 35 35 35 33 32 31 31 31 30 30 31 31 31 31 31 31 31 31 31 31 31 30 30 31 31 30 31 31 31 31 31 31 32 32 33 33 33
43 44 44 44 44 44 45 45 46 46 46 46 46 46 46 46 46 45 44 44 43 41 40 39 39 38 38 38 38 38 38 38 38 37 37 37 37 37 37 37 38 38 38 38 38 37 37 35 35 34 34 34 34 33 33 33 32 32 32 32 32 32 32 32 32 32 32 32 31 31 32 32 32 31 31 32 32 32 32 33 33 33 33 34 34
42 43 44 45 45 45 45 45 46 46 46 46 46 46 46 47 46 46 45 44 44 43 42 41 40 39 39 39 38 38 39 39 38 38 37 37 37 37 37 37 37 37 37 37 38 38 37 36 36 35 35 35 35 35 35 35 34 34 34 33 33 33 33 33 33 33 33 33 33 33 33 33 33 33 33 33 33 33 33 33 33 33 33 34 34
42 42 43 44 45 46 46 46 46 46 47 47 46 46 47 47 47 46 46 46 45 44 43 42 41 40 40 39 39 39 39 39 39 39 38 37 37 38 38 38 38 37 37 37 38 38 38 37 37 36 36 36 36 35 35 36 36 36 36 36 35 35 34 34 34 34 34 34 34 34 35 35 35 35 35 35 35 35 35 35 35 35 35 35 35
40 41 42 43 44 45 45 46 46 47 47 47 47 47 47 47 47 47 47 46 46 45 44 43 42 41 41 41 40 40 40 40 40 39 39 39 38 38 38 38 37 37 37 37 38 38 38 37 37 36 37 37 37 36 36 36 37 37 37 37 37 37 36 36 35 35 35 35 36 36 36 36 36 36 36 36 36 36 36 36 37 36 36 36 36
39 40 41 42 42 43 44 45 46 47 47 47 47 47 47 47 47 47 47 47 46 46 45 44 43 42 41 41 41 41 41 40 40 40 40 39 39 39 39 38 38 37 37 37 37 38 37 37 36 35 35 36 36 36 36 36 37 37 37 37 38 37 37 37 37 37 37 37 38 38 38 38 37 37 37 37 37 37 37 38 38 38 37 37 37
37 38 40 41 41 42 43 44 45 46 47 47 47 48 48 48 47 47 47 47 47 46 46 45 45 44 42 42 41 41 41 41 40 40 40 39 39 39 39 39 39 39 38 38 38 38 38 37 36 36 36 35 35 35 36 36 36 36 36 36 36 37 37 37 37 37 37 38 38 38 38 38 38 38 38 38 38 38 38 39 39 38 38 38 39
35 36 38 39 40 41 42 43 44 45 46 47 47 48 48 48 48 47 47 47 47 46 46 45 45 44 44 43 42 41 42 42 41 40 40 39 39 39 38 38 38 39 39 39 39 39 39 38 38 37 37 37 37 36 37 37 37 36 37 37 36 36 36 35 35 36 36 36 37 37 37 38 38 38 38 38 38 38 39 39 40 40 40 39 39
34 35 36 37 38 39 40 41 42 43 45 46 47 47 48 48 48 48 47 47 47 46 46 45 45 44 44 44 43 42 42 42 42 41 40 39 39 39 39 38 38 39 39 39 40 40 40 40 40 39 39 39 38 38 39 39 39 39 39 39 39 38 38 37 36 36 35 36 36 37 37 38 38 38 38 38 38 39 39 40 40 40 40 40 40
33 33 34 35 36 37 38 39 40 42 43 44 45 46 47 47 48 47 47 47 46 46 46 45 45 45 44 44 44 43 42 42 42 42 41 41 40 40 40 39 39 39 39 40 40 41 41 41 41 41 40 40 40 40 40 40 41 41 41 41 41 41 41 40 40 39 39 38 38 38 38 38 38 39 39 40 40 40 40 40 41 41 41 41 42
33 33 33 33 34 35 36 37 39 40 41 42 43 45 46 47 47 47 47 47 47 46 46 45 45 45 44 44 44 43 43 43 42 42 42 42 41 41 41 40 39 39 40 41 41 41 41 41 41 41 41 41 41 41 41 41 42 42 42 42 43 43 43 43 43 43 42 42 41 41 41 41 41 41 41 41 41 41 41 42 42 43 43 43 43
32 32 32 32 33 33 34 35 36 38 39 40 41 43 44 45 46 46 46 46 46 46 45 45 45 44 44 44 44 43 43 43 42 42 42 41 41 41 42 42 40 39 39 40 41 42 41 41 41 41 42 42 42 42 42 42 42 42 43 43 44 44 45 45 44 44 44 44 43 43 43 44 43 43 43 42 42 42 42 42 43 43 44 45 45
31 31 31 31 32 32 33 33 34 35 36 38 39 40 42 43 45 45 45 45 45 45 45 45 44 44 44 44 44 43 43 42 42 42 42 41 41 41 42 42 42 40 39 39 40 41 41 41 41 41 41 41 42 42 42 42 42 42 42 43 44 45 46 46 46 46 46 45 45 45 45 45 45 45 45 44 43 43 42 43 43 44 44 45 46
29 30 30 30 30 31 31 32 33 33 34 35 37 38 39 41 43 44 44 44 44 44 44 44 44 44 43 43 43 43 42 42 42 41 41 41 41 41 40 41 42 41 40 39 39 40 40 40 40 41 41 41 41 41 40 40 40 40 40 41 42 43 44 45 45 45 45 45 45 46 46 46 46 46 46 46 46 45 44 44 44 44 45 46 46
28 28 29 29 29 30 30 31 31 32 33 34 34 36 37 39 40 41 42 43 42 42 43 43 43 42 43 42 42 42 42 41 41 41 40 40 40 40 40 40 40 41 41 40 39 39 39 39 40 40 41 40 40 39 39 39 38 38 39 39 40 41 42 42 42 43 44 44 44 45 45 45 45 46 46 46 46 46 46 45 45 45 45 46 46
Wind_Direction
211 212 213 214 214 215 215 215 214 215 215 215 215 215 215 216 216 216 216 216 215 215 216 215 215 215 215 215 215 215 216 215 214 214 213 214 214 213 213 214 213 213 214 215 215 216 217 219 220 222 222 222 222 222 221 220 219 221 222 222 223 223 222 225 230 235 239 243 246 251 256 262 266 269 276 282 283 290 297 300 302 302 300 297 296
214 214 214 214 215 216 217 216 216 216 216 217 217 217 217 217 218 218 219 219 218 218 218 218 217 217 217 217 217 218 218 218 218 217 218 218 218 217 217 217 217 217 217 219 219 220 221 222 222 223 225 226 226 227 228 227 224 223 225 226 228 229 228 230 235 239 243 246 249 254 259 263 268 272 278 283 286 291 295 299 301 302 302 301 297
215 215 216 216 216 217 218 218 218 218 217 218 219 219 220 220 219 220 220 220 220 220 220 220 219 219 219 218 219 219 220 221 221 221 221 221 221 221 221 221 221 220 221 222 222 223 224 225 225 224 226 228 229 230 231 233 233 230 229 230 232 234 233 235 240 243 247 250 252 256 260 264 270 275 279 284 287 291 294 297 299 300 302 304 301
216 216 216 217 217 218 219 219 219 219 219 219 220 221 221 221 221 221 221 222 222 222 222 222 221 221 222 221 221 222 222 223 224 224 224 225 225 224 224 224 224 224 223 224 224 225 226 227 227 227 227 229 231 232 233 234 236 237 236 236 236 238 239 241 244 247 251 254 256 259 263 267 273 277 279 283 286 289 292 295 297 298 299 303 304
217 217 216 217 217 218 219 220 220 220 221 221 222 222 223 222 222 222 222 223 223 223 224 223 222 223 223 224 224 225 225 226 226 227 227 227 228 228 227 227 227 227 227 226 225 226 228 228 229 229 230 231 233 234 234 235 236 237 238 239 240 241 242 244 247 249 252 256 259 262 266 270 275 277 279 283 286 289 291 293 294 295 297 301 303
217 216 215 217 218 219 220 221 221 221 222 223 223 223 224 224 224 224 223 224 224 224 225 225 225 225 225 226 227 227 228 228 228 229 229 229 229 230 230 230 230 230 230 230 228 228 230 231 232 232 232 233 234 235 236 236 237 237 237 239 241 242 244 245 248 250 253 257 261 264 267 270 273 276 278 282 286 289 291 292 292 293 294 297 300
219 217 216 217 219 220 222 222 222 223 223 224 225 225 225 226 226 226 225 225 225 226 226 226 227 227 228 228 228 228 229 230 231 231 231 230 230 231 232 232 233 233 232 232 232 231 232 233 234 234 234 235 236 237 237 238 238 239 239 240 241 242 244 246 248 251 254 258 261 264 267 269 271 274 278 281 284 288 291 292 292 293 294 295 298
227 224 221 220 220 222 223 224 224 225 225 225 226 226 227 227 228 228 227 227 228 228 228 227 228 229 230 230 230 230 231 232 233 233 233 232 231 232 233 233 233 234 234 234 235 235 235 235 236 237 237 237 237 238 239 239 240 241 242 242 243 244 245 246 248 251 254 257 260 263 266 270 272 275 280 282 283 287 291 292 293 294 296 298 299
230 228 226 225 224 223 223 224 226 227 227 227 227 227 228 228 229 229 230 230 230 230 230 230 230 230 230 231 232 232 232 233 234 234 234 233 233 234 234 234 235 235 236 237 237 237 238 238 239 239 239 240 240 241 241 241 242 243 243 244 245 246 247 247 248 250 253 257 260 264 267 270 273 277 281 282 283 286 289 290 292 295 296 298 300
230 229 228 229 228 225 224 226 227 227 229 229 229 229 229 229 230 230 231 231 232 232 232 233 233 233 232 232 233 234 233 234 234 234 234 234 235 236 236 236 237 237 238 239 239 240 241 242 243 242 241 242 243 243 243 243 244 245 245 246 247 247 248 249 250 252 254 258 261 265 268 271 274 277 281 284 286 288 290 290 291 294 296 298 299
232 232 232 233 232 228 225 226 228 228 230 231 231 231 231 231 231 231 232 232 233 233 233 234 235 236 235 234 234 235 236 236 235 235 236 236 236 237 238 238 239 240 240 241 242 243 243 244 246 246 245 244 245 246 246 245 245 246 247 248 249 249 249 251 253 254 256 259 262 265 268 271 274 277 280 284 287 289 291 292 292 293 295 296 298
236 237 236 236 237 234 229 227 228 229 230 231 233 234 234 234 233 233 233 233 234 234 235 236 236 237 238 238 237 237 238 238 237 236 237 237 238 239 240 240 241 242 243 243 244 245 246 246 247 248 247 245 245 247 248 247 246 247 248 249 250 251 252 253 255 257 259 261 263 265 268 271 274 277 279 282 285 287 289 291 292 293 294 295 297
239 239 239 239 240 239 235 230 228 229 231 232 233 234 235 236 236 235 234 234 235 235 236 237 238 238 239 240 240 240 240 240 239 239 239 239 239 240 241 242 243 244 245 245 246 246 246 247 248 249 249 248 246 247 249 249 249 248 249 250 251 252 253 255 256 258 260 263 265 266 268 270 273 275 277 280 282 284 287 289 291 293 294 295 296
242 241 241 241 241 243 242 236 231 230 231 232 233 234 235 237 237 237 237 236 236 236 237 238 239 239 240 241 242 242 242 241 240 240 241 241 241 242 243 244 245 245 246 247 247 248 248 248 248 248 249 249 248 246 247 249 250 250 250 251 252 253 254 255 256 258 259 261 264 266 268 270 272 274 276 279 281 283 285 288 291 292 294 294 295
245 244 244 243 243 245 247 243 237 234 233 233 233 234 235 236 237 238 238 238 238 238 238 239 240 240 241 242 243 243 244 243 241 241 242 242 242 243 244 245 246 247 247 247 248 248 248 248 248 248 248 249 248 247 246 247 249 251 251 251 252 253 254 255 256 257 259 260 262 265 267 269 271 273 275 277 279 281 283 286 289 292 293 294 295
249 248 246 244 244 246 249 248 244 240 238 236 235 235 235 235 237 237 238 238 239 239 239 240 241 241 242 243 243 244 244 244 243 243 243 243 243 245 246 246 247 248 248 248 248 248 248 248 248 249 249 249 248 247 247 247 249 251 253 253 254 254 255 256 256 257 258 259 261 263 265 267 268 271 273 275 276 279 282 284 287 289 290 292 294
254 252 248 246 246 247 249 250 248 246 244 241 240 239 239 239 240 240 240 241 241 242 242 242 242 242 243 243 243 244 245 244 243 243 244 244 244 246 247 247 248 249 250 250 249 249 248 248 249 249 249 249 249 248 248 248 249 251 253 254 255 256 257 258 257 257 258 259 260 262 263 265 267 268 271 272 274 276 278 281 284 286 287 289 292
257 255 251 249 248 248 249 249 249 249 248 246 244 243 243 245 245 246 246 247 247 247 247 247 247 246 245 245 245 245 246 245 244 244 244 244 245 246 247 248 249 250 251 251 250 250 249 249 249 249 250 250 249 248 248 249 250 251 252 254 255 256 258 259 259 259 258 259 260 262 264 265 267 268 269 270 272 273 275 278 281 283 284 285 288
259 258 256 253 250 250 250 250 249 249 250 250 249 247 246 246 246 246 247 248 250 250 250 250 250 250 250 250 249 248 248 247 246 245 245 244 245 247 248 248 250 251 251 251 251 251 251 250 249 249 250 250 250 249 248 249 250 251 252 254 255 256 258 259 259 260 259 259 260 262 263 266 267 269 269 270 270 271 273 276 279 280 281 283 285
258 258 258 257 254 252 253 253 253 253 252 252 252 250 248 247 246 246 246 247 248 249 249 249 250 250 251 251 252 252 251 251 250 250 248 246 246 247 248 248 250 251 252 251 251 251 251 251 250 250 249 250 250 249 249 249 250 250 252 253 254 256 258 259 258 259 259 259 260 261 262 264 266 268 269 270 271 271 272 273 275 276 277 279 281
257 257 257 258 258 256 255 255 255 255 255 254 253 252 251 250 249 248 248 249 250 250 251 251 251 251 251 251 251 252 253 253 254 253 252 250 249 248 249 249 250 251 251 251 252 252 251 251 251 250 249 249 250 249 249 250 250 251 251 252 254 256 258 258 258 258 259 259 260 261 262 264 266 268 269 271 272 273 273 273 273 273 274 276 278
257 257 256 256 258 258 257 256 256 256 256 256 255 254 253 252 251 251 251 251 251 251 252 252 252 252 252 252 252 252 252 253 253 253 252 252 251 250 250 250 250 251 251 251 251 251 251 251 251 250 249 249 249 249 249 249 250 251 252 253 254 256 257 258 258 258 258 259 259 260 262 263 265 267 269 270 271 272 272 272 272 273 273 275 276
256 257 256 255 256 258 259 259 258 257 257 257 257 256 255 254 253 252 252 252 251 250 251 252 253 254 254 254 254 253 252 252 252 251 252 252 252 251 251 252 252 252 252 251 251 251 251 251 251 250 249 249 249 249 249 249 250 251 252 252 253 255 256 257 257 257 258 259 259 260 262 263 265 267 268 269 270 271 272 272 272 272 273 274 276
255 256 256 255 255 256 258 259 259 259 258 259 258 258 257 255 254 254 253 253 252 251 250 252 253 253 254 254 254 255 254 254 253 251 251 252 252 252 252 253 253 253 254 253 252 251 251 251 251 250 249 249 249 249 248 249 249 250 251 251 252 253 254 255 256 257 258 259 259 261 262 263 265 266 267 269 270 271 272 272 272 272 273 273 274
253 255 256 256 255 254 255 257 258 259 260 260 260 259 258 256 255 255 254 253 252 251 251 251 252 253 254 255 255 255 255 255 254 253 251 252 252 253 253 253 253 254 256 255 253 252 252 252 252 251 249 248 249 249 249 248 248 249 249 250 251 251 252 253 255 257 258 259 260 261 262 263 265 267 268 269 270 271 271 272 272 273 274 274 274
252 253 254 255 255 254 254 254 255 257 259 260 261 261 260 258 256 256 256 254 253 253 252 251 252 254 254 255 256 256 255 254 254 254 253 253 254 255 255 255 254 256 258 257 254 253 253 253 252 251 250 248 248 249 249 248 248 249 249 250 250 251 251 252 254 256 257 258 259 261 262 264 265 267 268 268 269 270 271 271 272 273 274 274 275
251 252 253 254 254 254 253 253 254 255 256 258 260 261 261 260 258 258 257 256 255 255 254 253 253 254 255 254 255 256 255 254 254 254 254 255 256 257 257 257 256 257 258 258 256 253 252 253 253 252 250 248 247 247 248 248 248 249 249 249 249 250 250 251 253 254 256 257 259 260 262 263 265 265 266 267 268 269 270 271 272 273 274 275 276
251 252 253 253 253 253 252 253 254 254 255 257 258 259 260 261 260 259 259 258 257 256 255 255 255 255 255 255 255 255 256 255 255 254 254 254 255 256 257 258 259 258 258 260 259 256 253 253 253 253 251 249 246 246 247 248 248 249 249 249 249 249 250 251 252 253 255 256 258 259 261 262 263 264 265 266 267 268 269 270 271 272 273 275 275
252 252 252 252 252 252 252 253 254 254 255 256 257 258 258 259 260 260 260 260 259 257 255 255 255 255 255 255 255 255 255 256 255 254 253 253 253 254 255 258 259 257 257 260 262 260 256 253 251 249 249 248 246 245 245 246 248 249 249 249 250 250 250 250 250 252 253 255 256 258 259 260 261 262 263 264 266 267 268 269 271 272 273 274 275
252 252 252 251 251 252 252 253 254 254 255 256 257 258 258 258 259 259 260 260 260 259 256 255 256 256 256 255 255 254 255 256 256 255 255 255 254 254 254 255 256 254 255 258 260 258 254 251 248 246 246 246 245 244 244 245 246 248 249 249 250 251 251 252 252 252 253 254 256 257 258 259 260 261 262 263 265 266 267 268 270 272 272 273 275
252 252 251 251 252 253 253 253 253 253 254 255 256 258 258 258 258 258 259 260 260 259 258 256 255 255 255 256 255 254 255 256 256 256 256 256 256 255 254 253 254 254 254 255 256 255 253 251 248 246 246 246 245 243 243 244 245 248 249 250 250 251 252 254 254 255 255 256 257 258 258 259 260 261 261 263 264 266 267 268 269 270 272 273 275
252 252 252 252 253 253 253 253 253 253 253 254 255 256 258 259 259 258 258 258 259 259 259 258 257 255 254 254 255 254 254 254 255 254 254 255 255 255 255 254 254 253 253 253 253 253 253 254 252 250 250 249 247 245 244 245 247 249 250 251 251 251 252 253 254 255 256 257 258 259 260 260 261 262 262 263 264 266 267 268 269 270 271 273 275
253 253 253 253 253 253 253 253 253 253 253 253 253 254 256 257 258 259 258 258 259 259 259 258 258 257 254 253 254 254 254 254 254 254 254 253 253 254 255 255 253 251 250 249 247 246 249 254 256 256 255 253 251 250 249 249 250 251 252 252 253 254 254 254 254 254 255 256 257 258 259 260 261 262 263 264 265 266 267 268 269 270 271 272 274
253 254 254 254 254 253 253 253 253 253 253 253 253 253 254 255 256 258 259 259 259 259 259 258 258 257 256 255 254 254 254 254 253 253 253 253 252 252 253 254 252 249 246 244 243 245 251 255 258 259 259 257 256 255 253 253 253 253 253 254 255 256 257 256 255 255 255 256 257 258 258 259 261 262 262 264 264 265 266 267 268 269 270 272 273
254 255 255 255 254 253 253 252 252 253 253 253 253 252 253 254 254 256 257 257 258 258 258 258 257 256 256 256 255 254 255 255 254 253 253 253 252 250 251 251 250 248 246 244 246 252 256 257 257 259 260 260 259 257 256 255 255 255 255 255 256 256 257 257 257 256 257 257 257 258 259 260 261 262 263 264 264 265 267 268 269 269 270 271 272
255 255 255 255 255 254 253 252 252 252 252 252 252 252 252 253 253 253 254 254 255 256 256 257 256 256 256 256 255 254 254 256 255 254 253 253 252 250 249 250 250 249 248 247 249 254 257 256 256 258 259 259 259 257 256 255 255 255 255 255 256 256 257 257 258 258 258 258 258 259 260 261 262 263 264 265 265 266 267 268 269 270 271 271 272
257 256 256 255 255 254 254 253 252 252 252 252 252 252 252 252 251 251 252 252 253 254 255 255 256 256 256 255 254 254 255 256 256 255 254 253 253 251 250 250 249 250 249 249 250 254 256 255 255 256 257 257 257 257 256 256 256 256 256 256 256 256 257 257 258 258 259 259 260 260 261 262 263 264 265 266 267 267 268 269 271 272 272 272 273
258 257 257 256 255 255 254 254 254 253 253 252 252 252 252 251 251 251 251 251 251 252 253 253 254 255 255 255 255 256 256 256 255 254 253 253 252 252 251 251 250 250 250 250 251 253 253 253 253 254 255 255 255 256 256 256 256 256 257 257 257 257 257 257 258 259 259 260 261 262 262 263 264 264 265 265 267 268 270 270 272 273 273 272 272
258 258 257 257 256 255 254 254 253 253 253 252 252 251 251 251 251 251 250 250 250 250 251 251 252 253 254 254 255 257 257 256 254 254 253 253 252 251 251 251 251 251 250 250 251 252 252 252 252 253 254 255 255 255 255 256 256 256 256 257 257 257 257 258 258 258 259 260 262 263 263 264 265 265 265 266 267 268 270 271 271 271 271 271 272
259 258 258 257 257 256 255 253 253 253 253 253 252 251 251 251 251 251 251 250 250 250 250 250 250 251 251 253 255 257 257 256 254 253 253 253 253 252 251 251 251 252 251 251 251 251 251 252 253 253 254 255 256 256 256 256 256 256 256 256 256 256 257 258 258 259 260 261 262 263 263 264 265 265 266 267 268 269 270 271 271 271 271 271 272
260 259 258 257 257 256 255 254 252 252 252 252 252 251 251 251 251 250 250 250 250 250 249 249 249 249 250 252 255 257 257 256 255 253 252 253 254 253 251 251 251 251 252 252 252 251 251 252 253 254 255 256 256 256 256 257 257 257 257 256 256 256 256 257 259 260 261 261 262 263 263 264 265 266 266 267 268 269 270 271 271 272 272 272 272
262 261 259 258 257 256 255 254 253 252 252 251 251 251 251 250 250 250 250 250 250 250 249 249 249 249 249 251 254 255 255 254 254 253 252 253 254 253 252 251 251 251 251 251 251 251 252 253 254 255 256 256 257 257 257 257 258 258 258 258 258 257 257 258 259 261 262 262 263 263 263 264 265 266 266 267 268 270 271 271 272 272 272 272 272
263 262 260 259 258 257 256 255 253 252 251 251 250 249 250 250 250 250 250 250 249 250 250 249 249 249 249 250 252 253 253 253 253 254 253 253 253 252 251 251 251 250 250 249 250 251 251 252 253 254 255 257 258 258 258 259 260 260 260 261 260 260 260 260 260 262 262 263 263 264 265 266 266 266 267 267 268 269 270 271 271 272 272 272 272
263 262 261 260 259 258 256 255 254 253 252 251 250 248 248 249 249 250 250 250 249 249 249 249 249 249 249 249 250 252 252 252 253 253 254 253 252 251 250 250 250 250 249 249 250 250 251 252 253 253 254 256 257 258 258 260 261 261 262 263 263 262 263 262 263 264 264 264 265 266 267 267 268 268 268 268 268 269 270 271 271 271 271 271 271
264 262 261 260 259 258 257 256 255 254 253 252 250 248 247 247 248 248 249 249 249 249 249 249 249 249 249 249 249 251 252 252 252 252 253 253 252 251 250 250 250 249 249 250 251 251 251 252 253 254 254 255 257 258 258 259 260 261 262 263 263 263 263 262 263 264 265 266 267 268 268 268 269 269 269 269 269 270 271 271 272 272 271 271 271
265 264 262 260 259 259 259 258 257 255 254 252 251 249 247 246 246 247 248 248 249 249 249 249 249 249 249 249 249 250 251 252 252 251 251 252 252 251 250 249 249 250 250 251 251 252 252 253 253 254 254 256 257 258 258 259 260 261 261 261 262 262 262 263 264 265 266 267 268 268 269 269 269 270 270 271 271 271 271 271 272 272 272 272 272
266 265 263 261 260 259 259 259 258 256 255 253 251 250 248 247 246 246 247 247 248 248 249 248 248 248 249 250 250 250 250 251 251 252 251 251 251 252 251 250 250 250 251 251 251 252 253 253 254 254 255 256 257 258 259 260 261 262 262 261 261 261 262 263 264 265 266 266 267 267 268 268 269 270 271 271 272 272 272 272 272 273 273 274 273
265 264 263 262 261 260 260 259 258 257 255 254 252 251 249 248 247 246 246 246 247 248 248 248 248 248 249 250 250 250 250 250 251 252 252 251 251 251 250 249 250 251 251 251 252 252 252 253 254 254 256 257 258 258 259 260 261 262 263 263 262 262 263 263 264 265 266 266 266 267 267 268 269 269 270 270 271 272 272 272 272 273 274 274 274
263 262 262 262 262 262 262 261 259 258 256 254 253 252 250 249 247 247 246 246 246 247 248 248 248 248 249 249 250 250 251 250 250 251 252 252 251 251 250 249 249 249 251 252 252 252 252 252 253 254 256 258 258 259 260 261 262 263 264 264 264 264 265 265 265 265 266 266 266 267 267 267 268 268 269 269 270 271 272 272 273 274 274 275 275
263 262 261 261 262 263 263 263 261 259 257 255 253 252 251 249 248 247 246 246 246 247 247 247 248 248 249 249 249 250 250 250 250 250 251 251 251 251 250 249 248 248 249 251 252 252 252 252 253 255 256 258 259 260 260 261 262 263 264 265 266 266 266 265 265 266 266 266 267 267 268 268 268 268 268 269 269 270 271 272 273 274 275 275 276
263 262 261 261 262 263 264 264 263 261 258 256 254 253 251 249 248 247 246 246 246 246 247 247 247 248 248 249 249 249 249 249 249 249 249 250 250 249 249 248 247 246 247 249 251 253 253 254 255 256 257 258 259 260 261 261 262 264 265 266 267 267 267 266 266 266 267 267 267 268 268 268 268 268 268 268 269 270 271 272 273 274 275 275 276